Wind_Speed
21 24 19 15 16 17 8 7 8 14 17 14 19 19 14 9 11 13 9 9 1 3 3 2 4 4 4 4 5 7 10 9 10 11 11 12 13 15 16 18 18 19 18 16
25 24 20 22 23 20 15 18 16 12 17 21 15 17 22 27 13 2 7 10 11 4 4 4 2 3 2 4 5 6 6 8 9 11 13 14 14 17 20 22 23 22 21 19
22 20 25 25 30 24 22 20 15 19 17 24 13 20 24 13 20 13 12 16 16 12 6 4 3 1 1 3 5 7 8 9 11 12 14 15 14 15 17 20 22 24 25 24
26 25 29 25 22 22 27 19 25 13 29 22 22 24 22 16 22 15 18 7 9 9 10 7 4 3 4 5 7 8 9 10 11 12 13 14 15 15 17 19 20 22 23 25
27 30 31 28 28 24 26 28 29 27 18 22 22 24 29 27 29 26 11 12 16 13 14 13 9 7 8 9 10 11 12 14 15 17 18 19 19 20 21 23 25 26 27 27
32 30 32 25 26 29 23 29 27 33 29 30 35 30 29 31 21 21 25 19 17 11 15 18 15 13 12 13 14 15 16 17 18 20 20 22 22 23 24 24 25 28 28 27
34 33 28 26 26 29 29 26 24 25 28 31 15 27 28 31 27 24 20 20 17 16 19 15 21 21 20 21 21 22 25 25 24 23 21 20 22 24 27 28 28 29 30 30
37 36 30 19 23 23 25 28 28 31 25 6 9 17 23 26 26 29 27 23 25 32 32 21 14 14 15 19 22 24 22 23 23 22 22 22 24 25 27 28 29 31 32 31
36 32 25 23 29 29 18 27 28 19 10 16 18 20 16 23 21 20 20 18 20 22 23 19 18 16 18 19 20 21 26 23 23 22 22 23 24 27 28 29 31 32 31 31
32 16 25 20 22 24 23 28 28 30 28 24 16 18 23 21 20 22 22 23 23 23 24 23 20 15 16 18 19 19 23 24 23 24 24 25 25 25 27 29 30 30 31 32
32 27 25 27 36 32 29 34 25 26 31 20 16 24 23 24 25 23 27 25 20 21 20 28 28 20 19 18 17 20 23 25 26 26 27 28 29 26 26 27 29 29 29 30
36 30 27 30 25 22 24 37 25 23 25 23 23 24 24 22 19 26 30 29 25 20 20 25 30 30 27 21 19 23 25 28 30 28 28 30 30 28 28 29 32 32 31 32
39 37 33 33 31 30 28 24 22 28 26 30 29 27 25 25 27 26 23 30 26 28 28 24 26 27 30 31 31 29 29 29 30 28 28 30 31 31 31 30 33 33 32 33
45 40 36 36 25 38 29 24 28 35 32 27 25 24 28 32 32 37 39 26 29 31 23 33 36 39 34 31 31 29 28 28 29 29 29 31 33 33 32 32 33 34 33 36
45 38 38 36 38 32 31 33 33 35 33 28 25 25 37 38 38 44 30 33 32 28 28 32 39 41 42 35 30 26 27 28 29 30 31 33 33 33 33 34 35 35 36 40
28 38 35 40 39 39 30 19 23 24 25 31 25 40 42 40 33 38 39 32 30 25 29 40 42 45 41 38 34 31 32 34 30 31 31 33 33 32 34 35 36 38 41 44
42 41 46 45 46 46 39 36 27 24 27 31 32 23 34 41 43 49 46 40 37 37 38 41 42 48 46 39 32 28 36 30 29 31 32 33 35 35 36 36 38 41 45 47
46 48 48 47 43 47 49 39 29 26 30 32 33 29 29 36 40 40 41 41 48 40 43 47 47 43 42 32 25 24 28 31 34 33 34 34 35 36 36 38 40 44 48 50
42 50 44 48 44 42 42 40 35 31 33 37 41 36 41 36 45 42 47 44 46 44 41 47 45 41 36 28 27 30 32 31 32 33 34 35 37 37 38 41 43 46 50 53
42 42 49 50 49 48 37 27 33 39 38 42 36 38 35 34 38 44 43 47 45 44 32 37 38 37 33 29 28 29 31 32 31 33 36 38 38 38 41 43 46 49 49 50
41 42 49 41 48 48 43 31 44 45 50 50 39 48 42 37 38 47 50 52 54 54 51 39 34 34 34 33 32 32 36 34 35 36 38 37 38 40 40 41 46 48 50 49
30 40 46 48 40 39 35 36 38 38 44 39 42 51 53 51 51 56 53 52 51 49 49 43 29 29 34 33 34 37 39 39 41 42 38 38 45 39 38 37 47 48 49 49
52 41 40 38 41 48 36 30 46 56 61 54 49 46 46 42 55 54 48 48 45 36 44 50 42 33 39 37 37 39 43 48 54 46 44 50 50 43 37 48 45 48 49 47
39 37 35 34 37 43 46 49 48 50 57 64 50 47 44 30 37 44 45 44 43 40 44 47 46 38 39 41 39 47 43 46 50 23 35 24 29 32 37 39 45 46 45 46
58 50 49 52 47 55 55 56 47 50 52 58 30 39 42 46 49 48 50 46 44 47 44 43 41 43 42 43 45 46 46 44 44 56 56 53 38 56 58 46 46 45 46 47
49 42 40 52 43 49 46 41 46 53 53 58 41 37 46 53 54 53 53 52 48 46 48 45 46 45 45 44 44 44 50 47 44 53 59 61 56 64 59 53 50 50 50 48
Wind_Direction
192 210 209 203 170 137 159 286 245 248 247 279 291 315 286 280 271 255 306 317 19 128 108 61 93 51 32 40 39 34 27 13 3 360 356 357 2 2 359 357 358 356 355 353
203 204 202 207 159 160 167 232 287 298 296 285 294 294 304 311 248 221 360 4 309 272 166 154 78 82 45 62 39 27 14 14 11 2 356 352 351 353 356 355 354 352 348 347
212 196 201 194 160 176 172 195 269 266 258 264 242 289 305 311 275 296 329 329 314 264 253 194 164 169 128 7 351 349 345 345 354 351 347 343 341 340 343 342 344 346 344 344
209 199 205 190 173 188 185 196 198 235 266 274 298 293 287 290 292 288 295 339 343 280 266 271 263 287 317 315 308 308 316 327 330 326 324 326 328 327 327 328 331 333 335 336
207 207 204 190 180 193 220 204 205 199 230 268 263 268 289 287 292 285 288 285 292 284 260 269 264 263 278 283 291 296 302 309 311 313 314 321 325 327 328 327 326 326 325 326
210 207 210 204 198 189 208 222 224 206 205 231 248 261 269 273 293 287 298 289 304 273 241 256 266 268 275 278 280 285 290 292 298 304 309 310 315 320 320 320 321 321 319 320
208 213 209 207 216 212 214 220 207 223 226 236 257 240 249 268 278 283 280 297 301 284 278 265 247 263 273 280 274 285 289 290 296 297 298 303 301 305 309 312 315 317 316 314
207 211 210 191 213 222 228 194 209 212 229 266 307 241 259 264 273 274 292 298 291 293 288 292 283 260 260 274 283 289 294 297 298 299 295 294 299 301 306 310 313 315 314 314
207 209 197 192 229 211 202 202 228 205 235 267 282 269 263 259 279 285 288 304 304 301 298 295 278 281 281 289 292 291 296 300 299 297 296 299 302 302 307 309 311 313 313 312
202 214 199 207 248 188 213 230 232 205 228 232 244 281 269 279 277 275 275 297 313 324 301 293 285 275 283 280 284 287 288 296 297 300 302 305 304 305 305 307 309 313 314 314
192 192 187 205 231 201 204 225 224 217 222 226 243 244 249 265 265 260 281 299 306 310 311 288 287 288 279 278 287 288 289 294 298 299 302 303 304 307 305 313 314 317 314 312
200 182 174 217 246 250 234 232 218 228 207 219 230 250 265 257 268 276 284 295 297 306 297 305 298 294 294 290 289 291 294 292 291 295 297 299 301 308 315 315 313 313 311 313
187 180 194 210 236 244 239 221 224 242 227 215 226 247 274 276 278 274 276 283 294 293 295 301 307 310 300 290 289 290 289 285 283 287 293 298 307 312 314 313 310 308 308 314
189 189 204 213 221 229 222 218 222 237 254 236 227 235 254 272 267 264 274 276 284 291 286 303 310 314 312 296 288 286 285 281 285 292 296 302 307 309 311 308 307 304 310 312
198 203 207 209 202 192 227 227 231 234 239 235 242 243 254 261 259 272 264 281 272 276 299 307 311 309 307 298 293 284 282 284 282 287 294 296 299 303 305 305 301 307 310 312
217 210 212 215 201 207 212 236 236 240 239 233 245 239 260 264 276 267 274 277 288 299 291 302 307 308 301 295 289 285 286 284 285 286 291 292 296 300 303 302 305 308 311 313
217 220 218 218 215 216 219 214 225 240 271 274 264 253 242 249 257 265 273 279 282 281 291 295 296 303 298 289 283 281 279 264 282 286 289 293 296 301 303 305 307 309 309 311
215 220 223 225 225 227 221 220 216 228 235 255 250 245 239 248 255 258 264 271 275 279 286 290 297 297 284 280 286 284 278 280 283 288 287 292 296 299 302 304 307 307 309 311
211 221 219 230 233 241 241 240 233 223 237 241 244 247 261 255 252 256 265 268 269 280 275 289 291 282 278 282 283 283 286 283 285 287 284 289 292 296 300 302 306 308 309 311
212 222 224 227 231 233 241 219 224 226 235 234 235 236 237 243 245 250 257 268 275 274 284 284 283 282 283 285 286 289 289 287 285 280 283 286 291 296 299 303 306 307 308 308
214 215 221 230 229 230 202 224 236 232 225 229 232 244 243 245 250 259 263 264 264 269 268 287 284 289 289 289 291 295 289 291 284 280 280 285 288 289 295 303 305 302 304 309
208 219 224 238 237 219 198 231 243 254 260 260 242 238 248 239 246 255 264 271 275 264 279 286 293 294 290 287 289 290 291 286 281 279 279 279 277 286 296 301 307 304 309 310
235 220 216 218 243 235 238 225 257 241 240 247 256 264 259 254 256 252 266 284 292 296 302 300 299 291 285 291 294 291 291 292 288 274 270 272 276 279 294 314 307 309 315 313
238 234 227 225 231 242 244 257 236 244 247 244 248 255 268 257 261 270 276 282 281 287 296 293 296 296 292 290 295 298 287 301 261 225 334 278 278 280 303 306 305 306 310 308
234 246 245 243 247 241 244 252 247 240 243 239 228 244 259 273 277 278 283 284 290 290 290 288 290 289 289 290 290 290 295 304 258 271 304 297 293 302 309 314 314 315 311 311
246 243 248 247 250 254 248 248 250 257 253 269 266 255 261 267 275 275 277 280 282 283 287 287 285 284 286 290 291 291 293 285 291 291 293 294 298 302 305 308 310 309 309 309
Height
5906 5906 5909 5913 5917 5919 5925 5927 5930 5926 5930 5932 5931 5929 5932 5931 5932 5932 5933 5935 5933 5932 5933 5932 5933 5933 5934 5934 5933 5932 5932 5933 5932 5931 5931 5930 5928 5927 5925 5924 5923 5921 5919 5917
5900 5903 5908 5911 5912 5919 5923 5928 5929 5931 5927 5930 5930 5927 5929 5929 5933 5931 5931 5933 5935 5934 5933 5932 5931 5932 5932 5933 5932 5933 5932 5932 5931 5930 5929 5928 5926 5924 5922 5920 5918 5917 5916 5914
5897 5904 5905 5906 5909 5916 5920 5928 5929 5929 5927 5928 5927 5925 5928 5929 5927 5928 5929 5928 5930 5933 5931 5931 5931 5932 5932 5931 5931 5930 5930 5930 5928 5927 5927 5926 5925 5923 5922 5920 5917 5914 5911 5909
5894 5899 5900 5901 5905 5915 5918 5923 5928 5928 5920 5919 5922 5924 5923 5924 5923 5924 5924 5924 5925 5928 5928 5928 5927 5927 5928 5928 5929 5929 5928 5927 5927 5926 5925 5924 5922 5921 5919 5917 5915 5913 5910 5906
5891 5891 5894 5897 5903 5911 5915 5918 5921 5925 5924 5924 5921 5920 5919 5918 5920 5917 5917 5919 5922 5925 5926 5925 5926 5926 5925 5926 5926 5926 5925 5925 5924 5923 5921 5919 5917 5916 5914 5911 5908 5907 5905 5902
5884 5888 5890 5895 5900 5904 5910 5912 5915 5919 5920 5919 5920 5918 5915 5915 5920 5920 5917 5914 5917 5920 5924 5925 5924 5924 5923 5923 5923 5923 5922 5922 5921 5919 5917 5915 5912 5911 5909 5907 5905 5902 5900 5898
5878 5881 5885 5890 5895 5900 5903 5906 5909 5912 5912 5910 5915 5913 5912 5914 5916 5914 5914 5913 5914 5915 5920 5921 5922 5921 5922 5919 5920 5919 5917 5916 5915 5914 5913 5911 5910 5908 5905 5902 5900 5897 5894 5892
5871 5875 5880 5886 5889 5894 5896 5901 5903 5904 5908 5909 5909 5909 5908 5910 5911 5909 5911 5911 5910 5909 5910 5913 5915 5915 5917 5916 5915 5913 5911 5909 5908 5908 5907 5906 5904 5902 5900 5898 5895 5891 5887 5884
5866 5872 5877 5880 5886 5890 5894 5895 5901 5903 5905 5906 5907 5905 5906 5906 5907 5906 5906 5905 5907 5906 5902 5903 5907 5909 5911 5909 5909 5907 5904 5904 5903 5902 5901 5900 5898 5896 5894 5890 5887 5884 5881 5877
5860 5868 5873 5879 5882 5886 5890 5894 5896 5896 5898 5901 5904 5902 5899 5898 5898 5900 5901 5902 5900 5900 5899 5898 5902 5905 5906 5905 5904 5903 5900 5898 5898 5897 5895 5895 5893 5891 5888 5885 5881 5877 5874 5870
5856 5861 5871 5875 5875 5880 5884 5885 5889 5894 5895 5898 5900 5898 5899 5897 5897 5897 5898 5901 5898 5897 5895 5896 5897 5902 5902 5900 5899 5897 5896 5894 5892 5891 5888 5887 5885 5884 5881 5878 5873 5869 5866 5863
5850 5855 5862 5870 5872 5877 5881 5881 5884 5886 5890 5893 5894 5892 5888 5893 5894 5893 5892 5891 5895 5897 5895 5895 5893 5895 5896 5894 5894 5893 5891 5888 5886 5885 5882 5879 5878 5876 5872 5869 5865 5862 5859 5856
5844 5848 5854 5863 5869 5869 5871 5875 5879 5881 5885 5886 5889 5889 5887 5887 5889 5886 5886 5887 5889 5891 5891 5891 5887 5888 5889 5888 5888 5887 5885 5882 5880 5878 5875 5873 5870 5866 5864 5861 5858 5855 5852 5849
5839 5842 5847 5853 5860 5864 5867 5871 5874 5876 5877 5882 5884 5886 5884 5882 5882 5880 5881 5881 5883 5884 5885 5882 5881 5879 5880 5880 5880 5879 5877 5875 5871 5870 5867 5865 5863 5860 5858 5855 5852 5848 5845 5840
5833 5834 5842 5848 5854 5858 5862 5865 5868 5869 5872 5873 5879 5879 5876 5877 5878 5875 5875 5880 5878 5881 5878 5877 5875 5873 5872 5871 5872 5871 5869 5867 5865 5863 5861 5859 5856 5854 5851 5848 5844 5840 5836 5831
5825 5828 5834 5839 5846 5851 5852 5856 5859 5862 5865 5868 5871 5873 5870 5873 5871 5866 5866 5874 5873 5872 5873 5871 5868 5866 5865 5863 5863 5862 5859 5855 5854 5854 5854 5852 5849 5847 5843 5840 5835 5830 5826 5820
5818 5820 5825 5830 5837 5841 5844 5850 5855 5860 5859 5859 5859 5861 5863 5863 5860 5858 5859 5864 5864 5865 5866 5865 5864 5861 5856 5856 5855 5854 5848 5840 5846 5845 5845 5843 5840 5837 5834 5829 5825 5821 5816 5810
5809 5812 5818 5824 5832 5833 5840 5844 5851 5851 5851 5848 5846 5847 5852 5854 5853 5852 5851 5854 5857 5859 5859 5857 5855 5854 5853 5850 5847 5844 5840 5839 5839 5836 5834 5832 5829 5827 5824 5819 5815 5811 5806 5801
5801 5806 5809 5815 5822 5829 5836 5843 5844 5845 5846 5845 5846 5841 5840 5844 5846 5846 5845 5848 5849 5850 5850 5850 5845 5846 5846 5844 5840 5836 5834 5833 5830 5827 5824 5821 5818 5816 5813 5810 5806 5801 5796 5791
5793 5797 5802 5807 5810 5815 5828 5833 5833 5832 5835 5838 5836 5832 5831 5833 5833 5834 5834 5836 5840 5840 5842 5842 5838 5836 5837 5835 5832 5829 5826 5823 5821 5817 5813 5811 5810 5808 5805 5801 5796 5791 5786 5780
5780 5787 5791 5795 5799 5807 5816 5813 5809 5818 5822 5824 5826 5824 5824 5824 5822 5824 5829 5830 5829 5831 5833 5835 5829 5825 5824 5824 5822 5821 5816 5814 5809 5806 5804 5803 5800 5796 5792 5788 5786 5780 5774 5766
5765 5774 5781 5787 5791 5796 5796 5808 5811 5808 5808 5812 5816 5820 5820 5819 5817 5818 5818 5818 5815 5820 5819 5821 5822 5817 5814 5813 5812 5809 5804 5801 5796 5794 5794 5793 5786 5785 5781 5777 5771 5769 5763 5754
5755 5757 5765 5778 5777 5780 5789 5791 5799 5802 5801 5801 5804 5807 5808 5808 5808 5809 5812 5810 5810 5807 5804 5803 5810 5809 5803 5804 5802 5796 5790 5787 5782 5775 5779 5774 5772 5772 5768 5767 5762 5757 5752 5745
5743 5753 5758 5764 5766 5771 5778 5785 5787 5788 5791 5792 5796 5796 5793 5796 5799 5800 5802 5802 5803 5803 5800 5797 5796 5797 5795 5792 5790 5785 5783 5772 5764 5743 5763 5744 5758 5756 5755 5755 5751 5746 5740 5734
5747 5747 5753 5762 5758 5765 5767 5769 5773 5776 5778 5782 5779 5785 5786 5786 5786 5788 5788 5790 5791 5791 5791 5790 5789 5785 5784 5782 5776 5773 5772 5772 5763 5758 5753 5754 5751 5747 5746 5743 5737 5731 5728 5725
5734 5739 5744 5747 5753 5761 5756 5760 5764 5768 5771 5772 5768 5774 5778 5778 5776 5777 5781 5782 5783 5781 5779 5780 5777 5776 5775 5772 5769 5765 5760 5759 5755 5750 5745 5739 5734 5735 5732 5729 5725 5722 5718 5712